AirNav   ProFlight Series 2 Aviation Headset
 
 889 users online  

95F Cleveland Municipal Airport
Cleveland, Oklahoma, USA

GOING TO CLEVELAND?


FAA INFORMATION EFFECTIVE 08 OCTOBER 2020

Location

FAA Identifier: 95F
Lat/Long: 36-17-03.0000N 096-27-48.0000W
36-17.050000N 096-27.800000W
36.2841667,-96.4633333
(estimated)
Elevation: 976 ft. / 297 m (estimated)
Variation: 06E (1985)
From city: 2 miles S of CLEVELAND, OK
Time zone: UTC -5 (UTC -6 during Standard Time)
Zip code: 74020

Airport Operations

Airport use: Open to the public
Activation date: 10/1967
Control tower: no
ARTCC: KANSAS CITY CENTER
FSS: MC ALESTER FLIGHT SERVICE STATION
NOTAMs facility: MLC (NOTAM-D service available)
Attendance: UNATNDD
Wind indicator: yes
Segmented circle: no
Lights: ACTVT MIRL RY 18/36 - CTAF.
Beacon: white-green (lighted land airport)
Operates sunset to sunrise.

Airport Communications

CTAF: 122.9
WX AWOS-3 at OWP (16 nm SE): 118.325 (918-246-2635)

Nearby radio navigation aids

VOR radial/distance  VOR name  Freq  Var
SWOr076/30.1STILLWATER VOR/DME108.4007E
TULr271/33.1TULSA VORTAC114.4008E
BVOr205/39.4BARTLESVILLE VOR/DME117.9008E

 
NDB name  Hdg/Dist  Freq  Var  ID
WILLIAM POGUE288/16.436206EOWP --- .-- .--.

Airport Services

Parking: hangars and tiedowns
Airframe service: NONE
Powerplant service: NONE
Bottled oxygen: NONE
Bulk oxygen: NONE

Runway Information

Runway 18/36

Dimensions: 4000 x 60 ft. / 1219 x 18 m
Surface: asphalt, in fair condition
Weight bearing capacity: 
Single wheel: 4.0
Runway edge lights: medium intensity
RUNWAY 18  RUNWAY 36
Latitude: 36-17.376833N36-16.723167N
Longitude: 096-27.747167W096-27.852833W
Elevation: 971.0 ft.976.0 ft.
Traffic pattern: leftleft
Runway heading: 181 magnetic, 187 true001 magnetic, 007 true
Markings: basic, in good conditionbasic, in good condition
Visual slope indicator: 2-light PAPI on left (2.75 degrees glide path)2-light PAPI on left (2.75 degrees glide path)
Obstructions: 68 ft. pline, 1408 ft. from runway, 245 ft. left of centerline, 17:1 slope to clear20 ft. tree, 348 ft. from runway, 84 ft. right of centerline, 7:1 slope to clear

Airport Ownership and Management from official FAA records

Ownership: Publicly-owned
Owner: CITY OF CLEVELAND
201 N. BROADWAY, P.O. DRAWER 190
CLEVELAND, OK 74020
Phone 918-358-3506
Manager: VICKI HAGERMAN
2789 S. AIRPORT RD., 201 N. BROADWAY
CLEVELAND, OK 74020
Phone 918-358-3506
CITY MANAGER.

Airport Operational Statistics

Aircraft based on the field: 5
Single engine airplanes: 5
    
Aircraft operations: avg 31/week *
62% local general aviation
31% transient general aviation
6% military
* for 12-month period ending 09 January 2020

Additional Remarks

GOLFERS INVOF ARPT.
FOR CD CTC TULSA APCH AT 918-831-6714/6720.

Instrument Procedures

There are no published instrument procedures at 95F.

Some nearby airports with instrument procedures:

KOWP - William R Pogue Municipal Airport (16 nm SE)
KCUH - Cushing Municipal Airport (25 nm SW)
KRVS - Richard Lloyd Jones Jr Airport (27 nm SE)
KTUL - Tulsa International Airport (28 nm E)
3F7 - Jones Memorial Airport (29 nm S)
 
Loc | Ops | Rwys | IFR | FBO | Links
Com | Nav | Svcs | Stats | Notes
Area around 95F (Cleveland Municipal Airport)
 
Road maps at: MapQuest Bing Google
 
Aerial photo
No photo
 
Sectional chart

 
Airport distance calculator
Flying to Cleveland Municipal Airport? Find the distance to fly.

From to 95F

Sunrise and sunset
Times for 29-Oct-2020
 Local
(UTC-5)
 Zulu
(UTC)
Morning civil twilight07:2112:21
Sunrise07:4812:48
Sunset18:3123:31
Evening civil twilight18:5823:58

Current date and time
Zulu (UTC)  29-Oct-2020 12:30:46
Local (UTC-5)  29-Oct-2020 07:30:46
 
METAR
KOWP 
16nm SE 
291215Z AUTO 36009G18KT 5SM BKN015 BKN022 OVC036 06/06 A2987 RMK AO2 P0005 T00600055 PWINO
KCUH 
25nm SW 
291215Z AUTO 35010G15KT 5SM RA BKN007 OVC011 04/04 A2991 RMK AO2 P0005 T00430043
KRVS 
27nm SE 
291153Z 01014G27KT 7SM RA OVC013 07/04 A2983 RMK AO2 PK WND 02030/1110 SLP107 P0006 60024 70090 T00720044 10083 20061 53023
KTUL 
29nm E 
291218Z 36015G24KT 5SM RA BR BKN012 OVC017 06/04 A2986 RMK AO2 P0005 T00560044
KSWO 
31nm W 
291217Z AUTO 33016G22KT 4SM RA BR SCT008 BKN017 OVC024 06/05 A2995 RMK AO2 P0005 T00610050 $
TAF
KRVS 
27nm SE 
290530Z 2906/3006 29003KT 4SM BR BKN005 OVC013 TEMPO 2906/2910 2SM -RADZ OVC002 FM291100 35013G22KT 2SM RA OVC002 WS020/03040KT FM291800 35014G24KT P6SM SCT008 BKN015 PROB30 2918/2920 4SM -RA OVC008 FM292200 35010G19KT P6SM SCT025 SCT250 FM300200 35008KT P6SM SKC
KTUL 
29nm E 
290530Z 2906/3006 31006KT 4SM -RA BR BKN005 OVC010 TEMPO 2906/2910 2SM -RADZ OVC002 FM291100 35016G26KT 2SM RA OVC002 WS020/03040KT FM291800 35016G24KT P6SM SCT008 BKN015 PROB30 2918/2920 5SM -RA OVC008 FM292100 35012G20KT P6SM SCT025 SCT250 FM300200 35011KT P6SM SKC
KSWO 
31nm W 
290624Z 2906/3006 35015KT 2SM -RA BR OVC005 FM290800 36021G32KT 2SM RA OVC005 WS020/03040KT FM291800 36017G24KT P6SM SCT015 FM300000 31006KT P6SM SKC
NOTAMs
Click for the latest NOTAMs
NOTAMs are issued by the DoD/FAA and will open in a separate window not controlled by AirNav.

 

 
 

Would you like to see your business listed on this page?

 If your business provides an interesting product or service to pilots, flight crews, aircraft, or users of the Cleveland Municipal Airport, you should consider listing it here.  To start the listing process, click on the button below
 
Add a business
 

Other Pages about Cleveland Municipal Airport

Mid Air Collision Avoidance Chart
 
Update a link
 
Copyright © AirNav, LLC. All rights reserved. Privacy Policy  Contact